Tracking 19846 objects as of 19-Sep-2019
HD Live streaming from Space Station
objects crossing your sky now

OBJECT PN

Track OBJECT PN now!
10-day predictions


NORAD ID: 43638
Int'l Code: 1998-067PN
Perigee: 395.4 km
Apogee: 400.2 km
Inclination: 51.6 °
Period: 92.4 minutes
Semi major axis: 6768 km
RCS: Unknown
Launch date: November 20, 1998
Source: (TBD)
Launch site: TYURATAM MISSILE AND SPACE COMPLEX (TTMTR)
aabbcc
Your satellite tracking list
Your tracking list is empty




NASA's NSSDC Master Catalog

Two Line Element Set (TLE):
1 43638U 98067PN  19262.33061874  .00006193  00000-0  84517-4 0  9994
2 43638  51.6371 243.2540 0003510  84.5964 275.5429 15.58966122 54158
Source of the keplerian elements: AFSPC